[[{"header":{"parameterUnit":"m.s-1","parameterCategory":1,"la1":30.2991,"la2":30.254,"lo1":-89.0895,"lo2":-89.0444,"dy":0.0017,"dx":0.0017,"nx":28,"ny":28,"refTime":"2024-08-15T03:00:00:Z","depth":0,"parameterNumber":2,"parameterNumberName":"U-component_of_WINDS"},"data":[0,0,0,0,0,0,0,0,0,0,0,0,0,0,0,0,0,0,0,0,0,0,0,0,0,0,0,0,0,0,0,0,0,0,0,0,0,0,0,0,0,0,0,0,0,0,0,0,0,0,0,0,0,0,0,0,0,0,1.2497,1.2497,0,1.2504,1.2504,1.2504,1.2463,1.2461,1.246,1.2459,1.2467,1.2468,1.2469,0,0,0,0,0,0,0,0,0,0,0,0,0,1.2447,1.2448,1.2497,1.2497,1.2497,1.2504,1.2504,1.2504,1.2463,1.2461,1.246,1.2459,1.2466,1.2468,1.2469,0,0,0,0,0,0,0,0,0,0,0,0,0,1.2463,1.2448,1.2497,1.2477,1.2475,1.2504,1.2504,1.2504,1.2463,1.2461,1.246,1.2458,1.2466,1.2468,1.247,1.2517,0,0,1.2476,1.2476,0,0,0,0,0,0,0,0,1.2462,1.2465,1.248,1.2479,1.2477,1.2481,1.2489,1.2509,1.2464,1.2468,1.2459,1.2457,1.2473,1.2474,1.2479,1.2518,1.2518,1.2476,1.2477,1.2478,1.2478,0,0,0,0,0,0,0,1.2461,1.2464,1.25,1.248,1.2478,1.2468,1.2468,1.2493,1.248,1.2467,1.2464,1.2466,1.2471,1.2478,1.2479,1.2518,1.2476,1.2477,1.2479,1.2479,1.2597,1.2599,0,0,0,0,0,0,1.2463,1.2464,1.2499,1.25,1.2465,1.247,1.2471,1.2481,1.248,1.2478,1.2467,1.2464,1.2475,1.2477,1.2479,1.2536,1.2478,1.248,1.2481,1.2595,1.2598,1.26,0,0,0,0,0,0,1.2462,1.2466,1.2499,1.2481,1.2484,1.2473,1.2485,1.2482,1.2488,1.248,1.2477,1.2476,1.2474,1.2477,1.2508,1.2535,1.248,1.2482,1.2593,1.2596,1.2599,1.2649,0,0,0,0,0,0,1.246,1.2466,1.2484,1.2482,1.2486,1.2528,1.2487,1.2484,1.2492,1.2487,1.2487,1.2485,1.2473,1.2506,1.251,1.2537,1.2484,1.2591,1.2594,1.2598,1.2645,1.2653,1.2661,0,0,0,0,0,1.2459,1.2498,1.2485,1.249,1.2508,1.253,1.2532,1.2517,1.2494,1.2512,1.2507,1.2485,1.2532,1.2509,1.2514,1.2542,1.2589,1.2593,1.2598,1.2641,1.2652,1.266,0,0,0,0,0,0,1.2503,1.2497,1.2483,1.2522,1.2527,1.2523,1.2545,1.2528,1.2539,1.2534,1.2514,1.2515,1.255,1.2549,1.2524,1.2589,1.2556,1.2562,1.2588,1.2598,1.2605,1.2605,1.2485,0,0,0,0,0,1.2518,1.2536,1.253,1.2565,1.2568,1.2557,1.2566,1.2553,1.2557,1.2559,1.2556,1.2561,1.2576,1.2587,1.2601,1.2645,1.2644,1.2666,1.2674,1.2681,1.2686,1.2709,1.2719,1.2614,1.2614,1.2614,0,0,1.2548,1.2547,1.2559,1.2574,1.2576,1.2596,1.2558,1.2581,1.2595,1.2562,1.2592,1.259,1.2594,1.2633,1.2649,1.2633,1.2715,1.2686,1.2691,1.2693,1.2715,1.2725,1.2734,1.2617,1.2617,1.2616,0,0,1.2613,1.2613,1.2643,1.2646,1.265,1.2642,1.265,1.2648,1.2646,1.2676,1.2651,1.2669,1.2696,1.27,1.2705,1.2773,1.2754,1.2778,1.2819,1.2842,1.285,1.2858,1.2882,1.2891,1.2783,1.2783,1.2783,0,1.2649,1.2678,1.2661,1.2685,1.2692,1.2664,1.2694,1.2698,1.2706,1.2712,1.2693,1.2728,1.2728,1.2767,1.2784,1.2789,1.2797,1.2778,1.2851,1.2858,1.2864,1.2887,1.2896,1.2786,1.2786,1.2785,1.2785,0,1.2723,1.2744,1.2767,1.2776,1.2786,1.2814,1.2801,1.2813,1.28,1.2794,1.2825,1.2825,1.2839,1.2847,1.2835,1.2885,1.2875,1.2854,1.2821,1.2877,1.2899,1.2907,1.279,1.2789,1.2788,1.2788,0,0,1.2816,1.2816,1.2825,1.2829,1.2831,1.2847,1.2873,1.2886,1.2897,1.2904,1.2926,1.295,1.2931,1.2937,1.2925,1.2946,1.3,1.2922,1.2922,1.2937,1.3056,1.3072,1.3082,1.2987,1.2988,1.299,1.3055,0,1.288,1.2924,1.291,1.2955,1.2974,1.2947,1.297,1.2974,1.297,1.2985,1.298,1.2998,1.2971,1.2974,1.2994,1.2989,1.3023,1.2984,1.3007,1.3008,1.3007,1.3093,1.311,1.3172,1.3064,1.3065,1.3066,0,1.296,1.297,1.3017,1.3017,1.3025,1.3045,1.3057,1.3072,1.3076,1.3072,1.3079,1.3063,1.3089,1.3056,1.3092,1.3065,1.3074,1.3073,1.3075,1.3077,1.3041,1.3097,1.3191,1.3201,1.3079,1.3078,1.3077,0,1.3023,1.3049,1.3081,1.3085,1.3085,1.3101,1.3102,1.3104,1.3114,1.3124,1.313,1.3143,1.315,1.3161,1.3149,1.3126,1.3186,1.3152,1.3184,1.3184,1.3197,1.3197,1.3294,1.3203,1.3203,1.3203,1.3202,0,1.3096,1.3126,1.3109,1.3129,1.3162,1.3145,1.3178,1.3176,1.3179,1.3198,1.3176,1.3194,1.3176,1.3193,1.3184,1.3215,1.3219,1.3216,1.3213,1.3218,1.3218,1.3223,1.3219,1.3205,1.3204,1.3204,1.3204,0,1.3172,1.3162,1.3195,1.3193,1.3193,1.3218,1.3216,1.3234,1.3228,1.3253,1.3257,1.3248,1.3267,1.3256,1.3275,1.3268,1.3309,1.33,1.3308,1.3306,1.3337,1.3335,1.3442,1.3455,1.3355,1.3356,1.3357,0,1.322,1.3242,1.3243,1.3254,1.3256,1.3274,1.3284,1.3268,1.3279,1.3286,1.3304,1.3321,1.3333,1.3365,1.336,1.3374,1.3366,1.3402,1.3368,1.3372,1.3367,1.3366,1.3368,1.3409,1.341,1.3411,1.3412,0,1.3304,1.3299,1.3313,1.3326,1.3338,1.3348,1.3356,1.3366,1.3351,1.3364,1.3383,1.3393,1.3413,1.343,1.3442,1.3443,1.3426,1.3423,1.3431,1.3436,1.344,1.3439,1.3327,1.3421,1.342,1.3419,1.3419,1.3418,1.3368,1.3387,1.339,1.3408,1.3412,1.342,1.3437,1.3433,1.3449,1.3464,1.3454,1.3476,1.3481,1.3496,1.3499,1.3517,1.3502,1.3514,1.3517,1.352,1.3524,1.3437,1.3519,1.3519,1.3518,1.3518,1.3518,0,1.3452,1.3453,1.3469,1.3481,1.3494,1.3476,1.3484,1.3497,1.3517,1.3523,1.3536,1.3558,1.3575,1.3571,1.3586,1.3601,1.3594,1.3606,1.3605,1.3605,1.3536,1.3528,1.3612,1.3612,1.3612,1.3612,1.3612,1.3612,1.3497,1.3529,1.3523,1.3557,1.3558,1.358,1.3586,1.3593,1.3597,1.3623,1.3637,1.3635,1.3637,1.3652,1.3667,1.3666,1.3672,1.3688,1.3684,1.3619,1.361,1.3601,1.3593,1.3689,1.369,1.3751,1.3752,1.3752]},{"header":{"parameterUnit":"m.s-1","parameterCategory":1,"la1":30.2991,"la2":30.254,"lo1":-89.0895,"lo2":-89.0444,"dy":0.0017,"dx":0.0017,"nx":28,"ny":28,"refTime":"2024-08-15T03:00:00:Z","depth":0,"parameterNumber":3,"parameterNumberName":"V-component_of_WINDS"},"data":[0,0,0,0,0,0,0,0,0,0,0,0,0,0,0,0,0,0,0,0,0,0,0,0,0,0,0,0,0,0,0,0,0,0,0,0,0,0,0,0,0,0,0,0,0,0,0,0,0,0,0,0,0,0,0,0,0,0,-2.1101,-2.1102,0,-2.1223,-2.1224,-2.1225,-2.1257,-2.1256,-2.1256,-2.1255,-2.1377,-2.138,-2.1384,0,0,0,0,0,0,0,0,0,0,0,0,0,-2.0893,-2.0897,-2.1101,-2.1102,-2.1104,-2.1222,-2.1224,-2.1226,-2.1257,-2.1256,-2.1255,-2.1254,-2.1375,-2.138,-2.1385,0,0,0,0,0,0,0,0,0,0,0,0,0,-2.0996,-2.0898,-2.1101,-2.1134,-2.1138,-2.1222,-2.1224,-2.1226,-2.1257,-2.1256,-2.1255,-2.1254,-2.1374,-2.138,-2.1385,-2.1444,0,0,-2.1403,-2.1406,0,0,0,0,0,0,0,0,-2.099,-2.1003,-2.1127,-2.1132,-2.1137,-2.1224,-2.1196,-2.1299,-2.1258,-2.1212,-2.1255,-2.1253,-2.1326,-2.1336,-2.1361,-2.145,-2.1455,-2.1404,-2.1408,-2.141,-2.1412,0,0,0,0,0,0,0,-2.0983,-2.0998,-2.1149,-2.1129,-2.1135,-2.1142,-2.1155,-2.1215,-2.1274,-2.1216,-2.1218,-2.1233,-2.1329,-2.1356,-2.1364,-2.1457,-2.1404,-2.1409,-2.1413,-2.1415,-2.1599,-2.1601,0,0,0,0,0,0,-2.097,-2.0992,-2.1145,-2.1153,-2.1059,-2.1147,-2.1162,-2.1197,-2.1273,-2.1284,-2.1233,-2.1234,-2.1346,-2.1358,-2.1369,-2.1443,-2.141,-2.1416,-2.1419,-2.1598,-2.16,-2.1601,0,0,0,0,0,0,-2.0966,-2.0983,-2.114,-2.1073,-2.1094,-2.1151,-2.1191,-2.12,-2.1227,-2.1287,-2.1297,-2.125,-2.1346,-2.1361,-2.1425,-2.1447,-2.1418,-2.1424,-2.1596,-2.1598,-2.16,-2.159,0,0,0,0,0,0,-2.0959,-2.0982,-2.1005,-2.1073,-2.1097,-2.1195,-2.1192,-2.1203,-2.1237,-2.1239,-2.1305,-2.1315,-2.1346,-2.1416,-2.1431,-2.1455,-2.1428,-2.1595,-2.1597,-2.16,-2.1589,-2.1592,-2.1594,0,0,0,0,0,-2.0952,-2.0997,-2.1006,-2.1024,-2.1128,-2.1197,-2.121,-2.1245,-2.1239,-2.1262,-2.1301,-2.1313,-2.1442,-2.1423,-2.144,-2.1465,-2.1593,-2.1597,-2.16,-2.1588,-2.1591,-2.1594,0,0,0,0,0,0,-2.0928,-2.1006,-2.1018,-2.1086,-2.1135,-2.1202,-2.1233,-2.1248,-2.1298,-2.1297,-2.1338,-2.1353,-2.1415,-2.1447,-2.1423,-2.1526,-2.1518,-2.1524,-2.1503,-2.1507,-2.1509,-2.15,-2.1433,0,0,0,0,0,-2.0931,-2.0982,-2.1047,-2.1101,-2.1125,-2.1174,-2.1206,-2.1229,-2.128,-2.1301,-2.1344,-2.1393,-2.1444,-2.1477,-2.1528,-2.1594,-2.1608,-2.162,-2.1622,-2.1624,-2.1629,-2.1666,-2.1671,-2.1611,-2.1611,-2.1611,0,0,-2.0938,-2.0987,-2.1016,-2.1097,-2.1138,-2.1188,-2.1191,-2.1244,-2.1282,-2.1308,-2.1372,-2.1406,-2.1463,-2.1528,-2.1559,-2.1556,-2.1649,-2.1628,-2.1629,-2.1633,-2.1669,-2.1675,-2.168,-2.1613,-2.1613,-2.1612,0,0,-2.0975,-2.1017,-2.1067,-2.1107,-2.1169,-2.1202,-2.1213,-2.1279,-2.1302,-2.1367,-2.1388,-2.1433,-2.1521,-2.1561,-2.1593,-2.1645,-2.1658,-2.1661,-2.1674,-2.1709,-2.1714,-2.1718,-2.1736,-2.1742,-2.1665,-2.1665,-2.1665,0,-2.0975,-2.1052,-2.109,-2.1143,-2.1178,-2.1205,-2.1255,-2.1292,-2.1367,-2.139,-2.1386,-2.1498,-2.1538,-2.1613,-2.1626,-2.1651,-2.1665,-2.1653,-2.171,-2.1715,-2.172,-2.1737,-2.1744,-2.1665,-2.1665,-2.1665,-2.1665,0,-2.1049,-2.1102,-2.1135,-2.1207,-2.1246,-2.1296,-2.1341,-2.1376,-2.1396,-2.1429,-2.1494,-2.1544,-2.1605,-2.1625,-2.1644,-2.1702,-2.1699,-2.1702,-2.1695,-2.1725,-2.1742,-2.1749,-2.1665,-2.1665,-2.1665,-2.1665,0,0,-2.1074,-2.1167,-2.1178,-2.1211,-2.1281,-2.1323,-2.1374,-2.1435,-2.1464,-2.1514,-2.1558,-2.1633,-2.1636,-2.1672,-2.1696,-2.1727,-2.1765,-2.1727,-2.1729,-2.1732,-2.1832,-2.1828,-2.1836,-2.1775,-2.1776,-2.1777,-2.1827,0,-2.1119,-2.1214,-2.125,-2.1327,-2.1376,-2.1403,-2.1448,-2.1495,-2.1528,-2.1574,-2.1609,-2.1661,-2.1662,-2.1684,-2.1716,-2.1754,-2.1786,-2.1751,-2.1815,-2.1817,-2.1799,-2.1845,-2.1842,-2.1886,-2.1834,-2.1835,-2.1836,0,-2.1185,-2.1237,-2.1319,-2.1383,-2.1405,-2.1445,-2.1504,-2.1548,-2.1601,-2.1623,-2.1663,-2.1685,-2.174,-2.1729,-2.1805,-2.178,-2.1809,-2.1831,-2.1834,-2.1841,-2.1828,-2.1852,-2.1901,-2.1908,-2.1847,-2.1846,-2.1846,0,-2.1194,-2.1285,-2.1346,-2.1373,-2.1449,-2.1477,-2.1509,-2.1563,-2.1597,-2.1648,-2.167,-2.1727,-2.1757,-2.18,-2.1837,-2.1826,-2.1908,-2.1901,-2.1927,-2.1926,-2.1942,-2.1941,-2.1996,-2.1962,-2.1961,-2.1961,-2.1961,0,-2.1241,-2.129,-2.1351,-2.1388,-2.1444,-2.1484,-2.1538,-2.1572,-2.1619,-2.1663,-2.169,-2.173,-2.1776,-2.1823,-2.1852,-2.1909,-2.1923,-2.1941,-2.1948,-2.1938,-2.1936,-2.1957,-2.1955,-2.1963,-2.1963,-2.1962,-2.1962,0,-2.126,-2.1303,-2.1372,-2.1438,-2.1456,-2.1494,-2.1551,-2.1588,-2.1622,-2.1677,-2.1692,-2.1744,-2.18,-2.1841,-2.1913,-2.1933,-2.1994,-2.2001,-2.1976,-2.1979,-2.2003,-2.2,-2.2073,-2.2084,-2.2042,-2.2043,-2.2043,0,-2.1287,-2.1325,-2.1397,-2.1429,-2.1462,-2.1512,-2.1548,-2.1589,-2.1625,-2.1689,-2.1718,-2.1776,-2.1824,-2.1912,-2.1956,-2.2011,-2.2019,-2.2041,-2.2028,-2.2017,-2.2019,-2.2016,-2.202,-2.2043,-2.2043,-2.2043,-2.2044,0,-2.1329,-2.1349,-2.14,-2.1458,-2.15,-2.1547,-2.1595,-2.1619,-2.1669,-2.1707,-2.1765,-2.1803,-2.1877,-2.1934,-2.1993,-2.2026,-2.2043,-2.2048,-2.2056,-2.2047,-2.203,-2.2039,-2.1981,-2.2046,-2.2045,-2.2045,-2.2045,-2.2045,-2.1353,-2.1389,-2.1444,-2.15,-2.154,-2.1585,-2.1623,-2.1661,-2.1711,-2.1775,-2.1796,-2.1856,-2.1908,-2.199,-2.2024,-2.207,-2.207,-2.2083,-2.2086,-2.2088,-2.2087,-2.2023,-2.2081,-2.2081,-2.2081,-2.2081,-2.2081,0,-2.1397,-2.1434,-2.1485,-2.1551,-2.1595,-2.1608,-2.1662,-2.1697,-2.1749,-2.1798,-2.1845,-2.1911,-2.1967,-2.2015,-2.2073,-2.2101,-2.211,-2.2114,-2.2112,-2.2119,-2.2085,-2.2071,-2.2106,-2.2106,-2.2106,-2.2106,-2.2106,-2.2106,-2.1424,-2.1485,-2.1511,-2.1592,-2.1629,-2.1688,-2.1718,-2.1758,-2.1797,-2.187,-2.1917,-2.1949,-2.1997,-2.2058,-2.2109,-2.2122,-2.2141,-2.2144,-2.2158,-2.2125,-2.2122,-2.2119,-2.2106,-2.2148,-2.2148,-2.2189,-2.2189,-2.219]}]]